Find Starlink 31957

NORAD ID: 59926 Int'l Des: 2024-106 Owner: SPXS Country: US Constellation: starlink operational
LEOCIRCULAR

实时位置

正在加载3D地球...

关于 Starlink 31957

正在加载描述...

即将过境

Passes for default location (London). Set your location on the main map for personalized predictions.

高度历史

Loading altitude history...

两行轨道根数

1 59926U 24106E 26124.76837404 -.00001436 00000-0 -42686-4 0 9994
2 59926 43.0041 15.4518 0001504 277.4657 82.6024 15.27574747109154
Epoch: May 4, 2026 • Age: 10 hours

当前状态

高度 486.6 km
速度 7.63 km/s
星下点 40.59°N, 153.55°E
发射日期 Jun 1, 2024
运行时间 1.9 years
类型 internet

技术详情

分类 Payload
质量 730.00 kg
干质量 700.00 kg
总质量 730.00 kg
长度 0.30 m
直径 4.10 m
跨度 29.00 m
形状 Box + pan
制造商 SPXS
平台类型 Starlink V2M
阶段状态 In Orbit
所有者/国家 SPXS/US

Most Searched